Weather History for Homer, AK

Change the Weather History Date:

Friday, March 7, 2014

  Actual Average Record
Temperature  
Mean Temperature 27 °F -  
Max Temperature 35 °F 34 °F 47 °F (1943)
Min Temperature 19 °F 20 °F -18 °F (1971)
Degree Days  
Heating Degree Days 38    
Moisture  
Dew Point 15 °F    
Average Humidity 61    
Maximum Humidity 78    
Minimum Humidity 42    
Precipitation  
Precipitation 0.00 in - - ()
Sea Level Pressure  
Sea Level Pressure 29.50 in    
Wind  
Wind Speed 4 mph (NE)    
Max Wind Speed 13 mph    
Max Gust Speed 18 mph    
Visibility 10 miles    
Events      
Averages and records for this station are not official NWS values.
T = Trace of Precipitation, MM = Missing Value Source: NWS Daily Summary

Daily Weather History Graph

Daily Weather History Graph

Search for Another Location

Airport:

Trip Planner

Search our weather history database for the weather conditions in past years. The results will help you decide how hot, cold, wet, or windy it might be!

Date:

Astronomy

Mar. 07, 2014 Rise Set
Actual Time 7:45 AM AKST 6:49 PM AKST
Civil Twilight 7:04 AM AKST 7:30 PM AKST
Nautical Twilight 6:16 AM AKST 8:18 PM AKST
Astronomical Twilight 5:27 AM AKST 9:08 PM AKST
Moon 10:14 AM AKST (3/7) 2:33 AM AKST (3/7)
Length of Visible Light 12h 26m
Length of Day
11h 04m
Waxing Crescent, 43% of the Moon is Illuminated
Mar 7
Waxing Crescent
Mar 8
First Quarter
Mar 16
Full
Mar 23
Last Quarter
Mar 30
New

Hourly Weather History & Observations

Time (AKST) Temp. Windchill Dew Point Humidity Pressure Visibility Wind Dir Wind Speed Gust Speed Precip Events Conditions
12:53 AM 25.0 °F 20.7 °F 12.9 °F 60% 29.69 in 10.0 mi NE 3.5 mph - N/A   Clear
1:53 AM 25.0 °F 19.3 °F 12.9 °F 60% 29.68 in 10.0 mi NNE 4.6 mph - N/A   Clear
3:53 AM 24.1 °F 17.0 °F 14.0 °F 65% 29.66 in 10.0 mi ENE 5.8 mph - N/A   Clear
4:53 AM 19.9 °F 14.9 °F 12.9 °F 74% 29.65 in 10.0 mi North 3.5 mph - N/A   Clear
5:53 AM 19.9 °F 14.9 °F 14.0 °F 78% 29.65 in 10.0 mi NE 3.5 mph - N/A   Clear
6:53 AM 19.0 °F 13.9 °F 12.9 °F 77% 29.63 in 10.0 mi North 3.5 mph - N/A   Clear
7:53 AM 19.0 °F - 12.9 °F 77% 29.63 in 10.0 mi Calm Calm - N/A   Clear
8:53 AM 21.9 °F - 15.1 °F 75% 29.60 in 10.0 mi Calm Calm - N/A   Clear
9:53 AM 28.0 °F 22.8 °F 18.0 °F 66% 29.59 in 10.0 mi ENE 4.6 mph - N/A   Clear
10:53 AM 30.0 °F 25.2 °F 19.9 °F 66% 29.58 in 10.0 mi East 4.6 mph - N/A   Clear
11:53 AM 30.9 °F 27.5 °F 19.9 °F 64% 29.56 in 10.0 mi East 3.5 mph - N/A   Clear
12:53 PM 32.0 °F - 21.0 °F 64% 29.54 in 10.0 mi Calm Calm - N/A   Clear
1:53 PM 33.1 °F 30.0 °F 23.0 °F 66% 29.50 in 10.0 mi South 3.5 mph - N/A   Clear
2:53 PM 33.1 °F 30.0 °F 21.9 °F 64% 29.47 in 10.0 mi SSE 3.5 mph - N/A   Clear
3:53 PM 35.1 °F 30.1 °F 21.0 °F 57% 29.43 in 10.0 mi ENE 5.8 mph - N/A   Clear
4:53 PM 34.0 °F 25.0 °F 21.0 °F 59% 29.40 in 10.0 mi East 12.7 mph 18.4 mph N/A   Clear
5:53 PM 34.0 °F 26.0 °F 12.9 °F 42% 29.37 in 10.0 mi NNE 10.4 mph - N/A   Clear
6:53 PM 30.0 °F 24.1 °F 12.0 °F 47% 29.35 in 10.0 mi NE 5.8 mph - N/A   Clear
7:53 PM 28.0 °F 24.2 °F 9.0 °F 45% 29.33 in 10.0 mi NE 3.5 mph - N/A   Clear
8:53 PM 27.0 °F 21.6 °F 8.1 °F 45% 29.31 in 10.0 mi NNE 4.6 mph - N/A   Clear
9:53 PM 26.1 °F 21.9 °F 7.0 °F 44% 29.29 in 10.0 mi ENE 3.5 mph - N/A   Clear
10:53 PM 24.1 °F 16.0 °F 9.0 °F 53% 29.27 in 10.0 mi ENE 6.9 mph - N/A   Clear
11:53 PM 24.1 °F 18.2 °F 9.0 °F 53% 29.26 in 10.0 mi NE 4.6 mph - N/A   Clear